Location: Mannheim
(49.4880°N, 8.4650°E)
Time: 14:29:20
(UTC+02:00)

ISS - Pass Details

Date: 25 September 2022
Orbit: 414 x 417 km, 51.6° (Epoch: 01 October)

Event Time Altitude Azimuth Distance (km) Brightness Sun altitude
Rises 22:07:52 0° 289° (WNW) 2,366 1.2 -27.0°
Reaches altitude 10° 22:09:59 10° 287° (WNW) 1,500 -0.1 -27.3°
Enters shadow 22:11:13 21° 284° (WNW) 1,010 -1.2 -27.4°
